Fort Payne, AL

2:41 PM CST on December 03, 2016 (GMT -0600)
Fort Payne

Weather History for K4A9 - March, 2014

Change the Weather History Date:

Friday, March 14, 2014

  Actual Average (KRMG) Record (KRMG)
Temperature  
Mean Temperature 46 °F 52 °F  
Max Temperature 64 °F 64 °F 81 °F (2012)
Min Temperature 28 °F 39 °F 26 °F (2014)
Degree Days  
Heating Degree Days 19 14  
Month to date heating degree days 216  
Since 1 July heating degree days 2838  
Cooling Degree Days 0 0  
Month to date cooling degree days 0  
Year to date cooling degree days 0  
Moisture  
Dew Point 27 °F    
Average Humidity 44    
Maximum Humidity 100    
Minimum Humidity 19    
Precipitation  
Precipitation 0.00 in 0.15 in 1.07 in (2009)
Month to date precipitation 2.40  
Year to date precipitation 12.09  
Sea Level Pressure  
Sea Level Pressure 30.18 in    
Wind  
Wind Speed 4 mph (SW)    
Max Wind Speed 20 mph    
Max Gust Speed 24 mph    
Visibility 10 miles    
Events      
T = Trace of Precipitation, MM = Missing Value Source: NWS Daily Summary

Daily Weather History Graph

Daily Weather History Graph

Search for Another Location

Airport or City:

Trip Planner

Search our weather history database for the weather conditions in past years. The results will help you decide how hot, cold, wet, or windy it might be!

Date:

Astronomy

Mar. 14, 2014 Rise Set
Actual Time 6:54 AM CDT 6:49 PM CDT
Civil Twilight 6:29 AM CDT 7:14 PM CDT
Nautical Twilight 6:00 AM CDT 7:44 PM CDT
Astronomical Twilight 5:31 AM CDT 8:13 PM CDT
Moon 5:14 PM CDT (3/14) 5:30 AM CDT (3/14)
Length of Visible Light 12h 45m
Length of Day
11h 55m
Waxing Gibbous, 96% of the Moon is Illuminated
Mar 14
Waxing Gibbous
Mar 16
Full
Mar 23
Last Quarter
Mar 30
New
Apr 7
First Quarter

Hourly Weather History & Observations

Time (CDT) Temp. Windchill Dew Point Humidity Pressure Visibility Wind Dir Wind Speed Gust Speed Precip Events Conditions
12:15 AM 32.0 °F - 30.2 °F 93% 30.23 in 10.0 mi Calm Calm - N/A   Clear
12:35 AM 30.2 °F - 30.2 °F 100% 30.23 in 10.0 mi Calm Calm - N/A   Clear
12:55 AM 30.2 °F - 30.2 °F 100% 30.24 in 10.0 mi Calm Calm - N/A   Clear
1:15 AM 30.2 °F - 30.2 °F 100% 30.23 in 10.0 mi Calm Calm - N/A   Clear
1:35 AM 30.2 °F 24.3 °F 30.2 °F 100% 30.23 in 10.0 mi NE 5.8 mph - N/A   Clear
1:55 AM 30.2 °F - - N/A% 30.23 in 10.0 mi Calm Calm - N/A   Clear
2:15 AM 30.2 °F - - N/A% 30.23 in 10.0 mi Calm Calm - N/A   Clear
2:35 AM 30.2 °F - 30.2 °F 100% 30.23 in 10.0 mi Calm Calm - N/A   Clear
2:55 AM 30.2 °F - - N/A% 30.22 in 10.0 mi Calm Calm - N/A   Clear
3:15 AM 30.2 °F - 30.2 °F 100% 30.22 in 10.0 mi Calm Calm - N/A   Clear
3:35 AM 30.2 °F - - N/A% 30.22 in 10.0 mi Calm Calm - N/A   Clear
3:55 AM 28.4 °F - - N/A% 30.22 in 10.0 mi Calm Calm - N/A   Clear
4:15 AM 30.2 °F - - N/A% 30.22 in 10.0 mi Calm Calm - N/A   Clear
4:35 AM 28.4 °F 24.6 °F - N/A% 30.22 in 10.0 mi NE 3.5 mph - N/A   Clear
4:55 AM 28.4 °F - - N/A% 30.22 in 10.0 mi Calm Calm - N/A   Clear
5:15 AM 28.4 °F - - N/A% 30.22 in 10.0 mi Calm Calm - N/A   Clear
5:35 AM 28.4 °F - - N/A% 30.22 in 10.0 mi Calm Calm - N/A   Clear
5:55 AM 28.4 °F - - N/A% 30.23 in 10.0 mi Calm Calm - N/A   Clear
6:15 AM 28.4 °F - - N/A% 30.23 in 10.0 mi Calm Calm - N/A   Clear
6:35 AM 28.4 °F - - N/A% 30.23 in 10.0 mi Calm Calm - N/A   Clear
6:55 AM 28.4 °F - - N/A% 30.23 in 10.0 mi Calm Calm - N/A   Clear
7:15 AM 28.4 °F - - N/A% 30.23 in 10.0 mi Calm Calm - N/A   Clear
7:35 AM 28.4 °F - - N/A% 30.23 in 10.0 mi Calm Calm - N/A   Clear
7:55 AM 30.2 °F - - N/A% 30.24 in 10.0 mi Calm Calm - N/A   Clear
8:15 AM 32.0 °F - 32.0 °F 100% 30.25 in 10.0 mi Calm Calm - N/A   Clear
8:35 AM 33.8 °F - 30.2 °F 87% 30.25 in 10.0 mi Calm Calm - N/A   Clear
8:55 AM 37.4 °F - 32.0 °F 81% 30.26 in 10.0 mi Calm Calm - N/A   Clear
9:15 AM 42.8 °F - 30.2 °F 61% 30.26 in 10.0 mi Calm Calm - N/A   Clear
9:35 AM 46.4 °F 43.5 °F 28.4 °F 50% 30.27 in 10.0 mi SW 5.8 mph - N/A   Clear
9:55 AM 50.0 °F - 28.4 °F 43% 30.26 in 10.0 mi WSW 5.8 mph - N/A   Clear
10:15 AM 51.8 °F - 28.4 °F 41% 30.25 in 10.0 mi SW 6.9 mph - N/A   Clear
10:35 AM 53.6 °F - 26.6 °F 35% 30.25 in 10.0 mi SW 8.1 mph - N/A   Clear
10:55 AM 57.2 °F - 26.6 °F 31% 30.24 in 10.0 mi WSW 11.5 mph - N/A   Clear
11:15 AM 59.0 °F - 24.8 °F 27% 30.23 in 10.0 mi SW 13.8 mph 17.3 mph N/A   Clear
11:35 AM 59.0 °F - 24.8 °F 27% 30.22 in 10.0 mi SW 12.7 mph 21.9 mph N/A   Clear
11:55 AM 59.0 °F - 23.0 °F 25% 30.21 in 10.0 mi SW 16.1 mph 20.7 mph N/A   Clear
12:15 PM 60.8 °F - 23.0 °F 23% 30.21 in 10.0 mi SW 11.5 mph - N/A   Clear
12:35 PM 60.8 °F - 23.0 °F 23% 30.21 in 10.0 mi South 11.5 mph 16.1 mph N/A   Clear
12:55 PM 60.8 °F - 23.0 °F 23% 30.19 in 10.0 mi SW 15.0 mph 19.6 mph N/A   Clear
1:15 PM 60.8 °F - 24.8 °F 25% 30.17 in 10.0 mi SSW 12.7 mph 21.9 mph N/A   Clear
1:35 PM 60.8 °F - 23.0 °F 23% 30.16 in 10.0 mi SW 19.6 mph - N/A   Clear
1:55 PM 62.6 °F - 23.0 °F 22% 30.14 in 10.0 mi SW 18.4 mph 24.2 mph N/A   Clear
2:15 PM 62.6 °F - 21.2 °F 20% 30.13 in 10.0 mi SW 13.8 mph 20.7 mph N/A   Clear
2:35 PM 64.4 °F - 21.2 °F 19% 30.12 in 10.0 mi SW 15.0 mph 21.9 mph N/A   Clear
2:55 PM 62.6 °F - 21.2 °F 20% 30.11 in 10.0 mi WSW 15.0 mph 20.7 mph N/A   Clear
3:15 PM 64.4 °F - 23.0 °F 21% 30.10 in 10.0 mi SW 17.3 mph 21.9 mph N/A   Clear
3:35 PM 64.4 °F - 23.0 °F 21% 30.10 in 10.0 mi SW 13.8 mph 20.7 mph N/A   Clear
3:55 PM 64.4 °F - 23.0 °F 21% 30.09 in 10.0 mi WSW 15.0 mph 18.4 mph N/A   Clear
4:15 PM 64.4 °F - 21.2 °F 19% 30.08 in 10.0 mi SSW 9.2 mph - N/A   Clear
4:35 PM 64.4 °F - 21.2 °F 19% 30.08 in 10.0 mi SSW 12.7 mph 21.9 mph N/A   Clear
4:55 PM 64.4 °F - 21.2 °F 19% 30.07 in 10.0 mi SW 13.8 mph 20.7 mph N/A   Clear
5:15 PM 64.4 °F - 21.2 °F 19% 30.07 in 10.0 mi SSW 10.4 mph - N/A   Clear
5:35 PM 62.6 °F - 21.2 °F 20% 30.07 in 10.0 mi SSW 9.2 mph 17.3 mph N/A   Clear
5:55 PM 62.6 °F - 23.0 °F 22% 30.08 in 10.0 mi SW 12.7 mph 17.3 mph N/A   Clear
6:15 PM 62.6 °F - 23.0 °F 22% 30.10 in 10.0 mi SSW 11.5 mph - N/A   Scattered Clouds
6:35 PM 60.8 °F - 23.0 °F 23% 30.10 in 10.0 mi SSW 11.5 mph - N/A   Scattered Clouds
6:55 PM 60.8 °F - 24.8 °F 25% 30.10 in 10.0 mi SW 8.1 mph - N/A   Overcast
7:15 PM 60.8 °F - 26.6 °F 27% 30.11 in 10.0 mi SW 3.5 mph - N/A   Mostly Cloudy
7:35 PM 60.8 °F - 26.6 °F 27% 30.12 in 10.0 mi SSW 3.5 mph - N/A   Mostly Cloudy
7:55 PM 59.0 °F - 26.6 °F 29% 30.11 in 10.0 mi South 5.8 mph - N/A   Mostly Cloudy
8:15 PM 59.0 °F - 28.4 °F 31% 30.12 in 10.0 mi West 4.6 mph - N/A   Overcast
8:35 PM 55.4 °F - 30.2 °F 38% 30.13 in 10.0 mi Calm Calm - N/A   Mostly Cloudy
8:55 PM 55.4 °F - 30.2 °F 38% 30.13 in 10.0 mi Calm Calm - N/A   Mostly Cloudy
9:15 PM 53.6 °F - 32.0 °F 44% 30.13 in 10.0 mi Calm Calm - N/A   Mostly Cloudy
9:35 PM 51.8 °F - 33.8 °F 50% 30.13 in 10.0 mi NW 3.5 mph - N/A   Overcast
9:55 PM 51.8 °F - 33.8 °F 50% 30.12 in 10.0 mi Calm Calm - N/A   Overcast
10:15 PM 51.8 °F - 39.2 °F 62% 30.12 in 10.0 mi Calm Calm - N/A   Overcast
10:35 PM 51.8 °F - 37.4 °F 58% 30.11 in 10.0 mi Calm Calm - N/A   Overcast
10:55 PM 51.8 °F - 35.6 °F 54% 30.10 in 10.0 mi Calm Calm - N/A   Overcast
11:15 PM 51.8 °F - 35.6 °F 54% 30.10 in 10.0 mi Calm Calm - N/A   Overcast
11:35 PM 51.8 °F - 33.8 °F 50% 30.10 in 10.0 mi SW 4.6 mph - N/A   Mostly Cloudy
11:55 PM 51.8 °F - 33.8 °F 50% 30.10 in 10.0 mi SW 5.8 mph - N/A   Scattered Clouds